Weather Roundup
Issued by NWS Chicago, IL

Home | Current Version | Previous Version | Graphics & Text | Print | Product List | Glossary On
Versions: 1 2 3 4 5 6 7 8 9 10 11 12 13 14 15 16 17 18 19 20 21 22 23 24 25 26 27 28 29 30 31 32 33 34 35 36 37 38 39 40 41 42 43 44 45 46 47 48 49 50
000
NZUS59 KLOT 212104
HRRLOT

CHICAGO AREA WEATHER ROUNDUP
NATIONAL WEATHER SERVICE CHICAGO/ROMEOVILLE IL
400 PM CDT FRI JUL 21 2017

NOTE: "FAIR" INDICATES FEW OR NO CLOUDS BELOW 12,000 FEET WITH NO
SIGNIFICANT WEATHER AND/OR OBSTRUCTIONS TO VISIBILITY.

* THESE STATIONS ARE NOT UNDER NWS QUALITY CONTROL. THEY ALSO MAY NOT
  REPORT WEATHER SUCH AS PRECIPITATION OR FOG.

ILZ005-006-012>014-019>023-212200-
NORTHEAST ILLINOIS

CITY           SKY/WX    TMP DP  RH WIND       PRES   REMARKS
OHARE          CLOUDY    86  70  58 S8        29.93S HX  90
MIDWAY         CLOUDY    89  69  51 S8        29.92F HX  93
AURORA         PTSUNNY   87  76  69 SE7       29.93F HX  97
LANSING*       MOSUNNY   85  69  58 S9        29.95S HX  88
JOLIET*        CLOUDY    87  76  68 SE8       29.93S HX  98
WAUKEGAN       CLOUDY    78  67  68 SE5       29.95R HX  80
DUPAGE AIRPORT CLOUDY    85  74  69 S6        29.93S HX  92
WHEELING       CLOUDY    85  73  67 E6        29.94S HX  91
MORRIS*        PTSUNNY   87  77  73 SE8       29.91F HX  98
LEWIS AIRPORT* CLOUDY    86  71  59 S8        29.93F HX  91
NORTHERLY ISL    N/A     79  71  76 E6          N/A  HX  82
$$

WIZ051-052-058>065-066-070>072-212200-
SOUTHEAST WISCONSIN

CITY           SKY/WX    TMP DP  RH WIND       PRES   REMARKS
MILWAUKEE      LGT RAIN  78  71  79 CALM      29.97R HX  80
KENOSHA*       CLOUDY    79  64  60 SE8       29.96S HX  81
RACINE*        CLOUDY    76  72  87 E6        29.97S
WAUKESHA       LGT RAIN  75  72  88 NW6       30.00R
$$

INZ001>003-010>013-019-020-212200-
NORTHWEST INDIANA

CITY           SKY/WX    TMP DP  RH WIND       PRES   REMARKS
GARY*          PTSUNNY   88  68  51 SE8       29.95F HX  91
MICHIGAN CITY* NOT AVBL
RENSSELAER*    NOT AVBL
VALPARAISO     MOSUNNY   87  74  64 S8        29.97F HX  95
$$

LMZ740>746-212200-
SOUTHERN LAKE MICHIGAN

STATION/POSITION TIME  SKY/WX   TEMP WIND        PRES    VSBY
                                AIR  DIR/SP/G
                 (UTC)          (F)  (DEG/KT/KT) (MB)    (MI)
HARRISON CRIB    2040            78  100/ 13/ 13   N/A
BURNHAM HARBOR   2100            78                N/A
CALUMET HARBOR   2030            80   70/  8/ 11 1013.4F
BURNS HARBOR     2040            81  340/  3/  5 1014.2F
MICHIGAN CITY    2040            79   10/  5/  6   N/A
$$

ABBREVIATIONS USED IN REMARKS
   TC - TEMPERATURE IN CELSIUS
  WCI - WIND CHILL INDEX
   HX - HEAT INDEX
  VSB - VISIBILITY
$$




USA.gov is the U.S. government's official web portal to all federal, state and local government web resources and services.